Погода в Благовещенске

Погода в Благовещенске : погода сейчас, прогноз погоды и архив. Всё, что Вы хотите узнать о погоде в Благовещенске!

Хотите узнать прогноз погоды в Благовещенске? Тогда Вам сюда: Погода в Благовещенске

Поиск расширенной информации на нашем сайте:

Другие новости

Новости СМИ2

Главная страница сайта

Новости сайта

03.07.2017

Напоминаем, что на нашем специализированном сайте Метеоцентр.Азия вы можете получить высокодетализированные автоматические прогнозы погоды по пунктам России, СНГ и мира в авиационном формате (включающие направление и скорость ветра, видимость, явления погоды, количество и форму облачности, нижнюю и верхнюю границу облачности).


Погода в Благовещенске - сегодня

Время (UTC), дата Ветер
(°,м/с) 
Видим.   Явления Облачность Т
(°С)
Тd
(°С)
f(%) Тe
(°С)
Pmin
(гПа)
dP
(гПа)
Po
(мм)
O2
(г/м3)
Тmin Tmax R s Состояние
почвы
21 17.07.18 тихо ()   10 км    8/3 1000 м средняя 
[Sc diur, vesp|Ac lent]
+21.7 +20.2 91 +41  1002.6  0.2  737  270           
00 18.07.18 160 (Ю) 20000 м    10/10 1000 м 
[Sc]
+23.9 +21 84 +46  1002.5  0.1  738  268  +20.5        влажная 
03 18.07.18 180 (Ю) 20000 м    10/10 600 м кучево-дожд. 
[Cb cap]
+25.8 +22.1 80 +50  1001.8  -0.5  737  266           
06 18.07.18 140 (ЮВ) 20000 м    10/6 600 м кучево-дожд., средняя 
[Cb cap|As op]
+27.3 +23.2 78 +55  999.7  -1.9  736  263           
12 18.07.18 080 (В) 10 км  {ливн. осадки}  10/10 600 м кучево-дожд. 
[Cb cap]
+21.9 +20.7 93 +43  999.6  -0.6  735  269    +28.6  10     
15 18.07.18 060 (СВ) н/о    10/10 600 м кучево-дожд. 
[Cb cap]
+21.9 +20.7 93 +43  998.6  -0.9  735  269           
18 18.07.18 040 (СВ) н/о    н/о 
+21.5 +20.4 93 +42  997.6  -1  734  269           
21 18.07.18 320 (СЗ) н/о    н/о 
+21.3 +20 92 +41  999  1.3  735  270           
00 19.07.18 300 (СЗ) 20000 м  {ливн. осадки}  9/5 600 м кучево-дожд., верхняя 
[Cb cap|Ci fib]
+24.3 +20.8 81 +46  999.6  0.8  735  267  +20.8      влажная 
03 19.07.18 360 (С) 20000 м    10/8 600 м кучево-дожд., верхняя 
[Cb cap|Ci fib]
+27.4 +21.9 72 +51  999.6  0.2  736  264           
06 19.07.18 290 (З) 20000 м    10/8 1000 м кучево-дожд., верхняя 
[Cb cap|Ci fib]
+29.3 +20.9 61 +51  999  -0.5  735  262           
12 19.07.18 290 (З) 20000 м  {гроза, ливн. осадки}  10/8 600 м кучево-дожд., средняя 
[Cb calv|Ac As]
+22.8 +20.7 88 +44  1000.5  0.9  736  269    +29.5  0.0     
15 19.07.18 320 (СЗ) н/о    10/0 средняя, верхняя 
[Ac As|Ci ing]
+21.8 +20.3 91 +42  1000.9  0.3  736  270           
18 19.07.18 330 (СЗ) н/о    10/10 1000 м кучево-дожд. 
[Cb cap]
+20.5 +19 91 +38  1000.1  -0.9  736  271           
21 19.07.18 320 (СЗ) 20000 м    10/8 600 м кучево-дожд., верхняя 
[Cb cap|Ci fib]
+20.4 +18.8 91 +37  1000.9  0.7  736  272           
00 20.07.18 020 (С) 20000 м    10/10 600 м кучево-дожд. 
[Cb cap]
+23.3 +20.2 83 +43  1001  0.3  736  268  +19.9        влажная 
03 20.07.18 050 (СВ) 20000 м  в посл. час ливневой дождь  10/10 600 м кучево-дожд. 
[Cb cap]
+23.6 +20.2 81 +43  1001.6  0.6  737  268           
06 20.07.18 360 (С) 20000 м  {ливн. осадки}  10/10 600 м кучево-дожд. 
[Cb cap]
+25.7 +20.5 73 +46  1001.4  -0.1  737  266           
09 20.07.18 010 (С) 20000 м    6/5 1000 м верхняя 
[Sc diur, vesp|Ci sp]
+25.8 +20.2 71 +46  1003  1.5  738  267           
15 20.07.18 050 (СВ) н/о    8/3 1000 м средняя, верхняя 
[Sc|Ac trans|Ci fib]
+20.7 +18.6 88 +37  1005.1  0.7  739  273           
18 20.07.18 тихо ()   н/о    10/10 1000 м 
[Sc]
+19.1 +17.7 92 +33  1005.8  0.5  740  275           
21 20.07.18 060 (СВ) 20000 м    9/9 1000 м 
[Sc]
+20.2 +18.4 89 +36  1006.4  0.6  740  273           
00 21.07.18 100 (В) 20000 м    8/4 1000 м средняя, верхняя 
[Sc|Ac trans|Ci fib]
+22.5 +16.5 69 +34  1006.7  0.5  741  272  +18.8        сухая 
03 21.07.18 110 (В) 20000 м    9/8 1000 м верхняя 
[Sc diur, vesp|Ci fib]
+24.7 +17.5 64 +38  1005.5  -1  740  269           
06 21.07.18 080 (В) 20000 м    9/3 1000 м средняя, верхняя 
[Cu hum|Ac lent|Ci fib]
+25.2 +18.1 65 +40  1004.5  -1  739  268           
Время (UTC), дата Ветер
(°,м/с) 
Видим.   Явления Облачность Т
(°С)
Тd
(°С)
f(%) Тe
(°С)
Pmin
(гПа)
dP
(гПа)
Po
(мм)
O2
(г/м3)
Тmin Tmax R s Состояние
почвы

Для получения пояснительной информации подведите курсор к названию столбца.

ПОГОДА в Благовещенске - архив

Всё, что Вы хотите узнать о погоде в Благовещенске - удобно и подробно!

Выберите нужную дату (начиная с 1 января 2015* года) и нажмите кнопку "Найти".
Будут отображены архивные сводки погоды по пункту Благовещенск, начиная с указанной даты.


Отображать данные в формате CSV (для использования в таблицах Excel)


Внимание! Наш архив погоды предназначен исключительно для личного некоммерческого использования в познавательных целях. Если Вам необходимы официальные справки о состоянии погоды (для производственных, юридических, коммерческих и т.п. целей), обращайтесь в органы Росгидромета.

*Примечание: данная дата относится к архиву по метеостанциям СССР (Россия, СНГ, Балтия).
Архив по метеостанциям Зарубежной Европы и Азии (кроме Китая) хранится 10 дней, по другим регионам земного шара (Китай, Африка, Америка, Австралия, Океания) - 1 день.

Благовещенск - район местоположения метеостанции


Название, широта, долгота, высота метеостанции:
Благовещенск 50.2°ш. 127.6°д. 132 м над ур. моря [Российская Федерация]

Дополнительная информация

В oтличие oт бoльшинства пoгoдных сайтoв мы публикуем пoдрoбную метеoинфoрмацию в детальнoм прoфессиoнальнoм фoрмате.

Характеристики температуры и влажнoсти вoздуха измеряются на высoте 2 м в тени вдали oт зданий и деревьев.
Скoрoсть ветра измеряется на высoте 10 м (на урoвне рoста челoвека скoрoсть ветра ниже в 1.5-2 раза). Если метеoстанция нахoдится в гoрoде или в лесу, тo скoрoсть ветра занижена на 2-4 м/с пo сравнению с oткрытым местoм. Скoрoсть ветра над акватoриями крупных рек и oзёр, а также на вершинах хoлмoв на 2-5 м/с выше, чем в oбычных услoвиях.
Атмoсфернoе давление в разных тoчках местнoсти мoжет значительнo oтличаться oт давления на метеoстанции, в зависимoсти oт услoвий рельефа (при пoдъёме на 10 м давление пoнижается примернo на 1 мм рт.ст.).